[[{"header":{"parameterUnit":"m.s-1","parameterCategory":1,"la1":30.2992,"la2":30.254,"lo1":-89.0895,"lo2":-89.0443,"dy":0.0025,"dx":0.0025,"nx":19,"ny":19,"refTime":"2026-04-21T09:00:00:Z","depth":0,"parameterNumber":2,"parameterNumberName":"U-component_of_WINDS"},"data":[0,0,0,0.1592,0.1592,0.1579,0.1579,0.1559,0.1558,0,0,0,0,0,0,0,0,0,0,0,0.1594,0.1594,0.1592,0.1592,0.1579,0.1579,0.1559,0.1558,0,0,0,0,0,0,0,0,0,0,0,0.1594,0.1594,0.1594,0.1592,0.1579,0.1579,0.1559,0.157,0,0,0,0,0,0,0,0,0,0,0.1583,0.1582,0.1594,0.1594,0.1592,0.1579,0.1579,0.157,0.1569,0.1563,0,0.1557,0,0.1558,0.1557,0.1557,0,0,0,0.1593,0.1584,0.1582,0.1594,0.1592,0.1579,0.1586,0.157,0.1568,0.1561,0.1557,0.1556,0.1557,0.1557,0.1557,0.1517,0.1517,0,0,0.1594,0.159,0.1583,0.1581,0.1584,0.1586,0.1585,0.1569,0.1564,0.1557,0.1556,0.1557,0.1557,0.1556,0.1517,0.1517,0,0,0,0.1595,0.1591,0.159,0.1582,0.158,0.1586,0.1585,0.1565,0.1565,0.1556,0.1557,0.1556,0.1556,0.1518,0.1517,0.1501,0,0,0,0.1596,0.1592,0.159,0.1588,0.158,0.1572,0.1581,0.1566,0.1564,0.1557,0.1556,0.1556,0.1518,0.1518,0.1502,0.1494,0,0,0,0.1596,0.1592,0.1589,0.1588,0.1582,0.1573,0.1572,0.1565,0.1565,0.1557,0.1556,0.1518,0.1518,0.1503,0.1496,0.1482,0,0,0,0.1594,0.1575,0.1589,0.1568,0.1582,0.1563,0.1572,0.1558,0.1549,0.1556,0.1518,0.1517,0.1504,0.1496,0.1483,0.1469,0.1464,0,0,0.1568,0.1572,0.156,0.1572,0.1549,0.1566,0.1541,0.1536,0.1538,0.1524,0.1523,0.1502,0.1496,0.1482,0.1435,0.143,0,0,0,0.155,0.1541,0.1536,0.1528,0.1525,0.1521,0.1521,0.1519,0.1507,0.1531,0.1494,0.1491,0.1483,0.1476,0.1472,0.1465,0.1515,0.1515,0.1515,0.1506,0.1511,0.1491,0.1495,0.1487,0.1487,0.1481,0.1479,0.1485,0.1477,0.1472,0.1443,0.1435,0.1432,0.1425,0.1466,0.1466,0.1466,0.1466,0.1467,0.1455,0.1465,0.145,0.1455,0.1441,0.1441,0.1446,0.1434,0.1447,0.144,0.1453,0.1427,0.1421,0.1465,0.1465,0.1465,0.1465,0.1465,0.1438,0.1433,0.1432,0.1422,0.1413,0.1417,0.1405,0.141,0.1415,0.1408,0.1403,0.1403,0.1403,0.1406,0.1406,0.1406,0.1406,0.1405,0.1405,0.1408,0.1407,0.1397,0.1392,0.1388,0.1383,0.1384,0.1379,0.1376,0.138,0.138,0.1387,0.1424,0.1433,0.1404,0.1404,0.1404,0.1404,0.1405,0.1364,0.1375,0.1359,0.1354,0.1349,0.134,0.1347,0.1338,0.1335,0.1329,0.1338,0.1365,0.1369,0.1372,0.1379,0.1338,0.1338,0.1338,0.1338,0.1338,0.1341,0.1326,0.1319,0.1312,0.1318,0.1298,0.1299,0.1301,0.1299,0.1306,0.1317,0.132,0.1322,0.1326,0.1332,0.128,0.128,0.128,0.1311,0.1314,0.1296,0.13,0.1296,0.1293,0.1275,0.1265,0.127,0.1278,0.1298,0.13,0.1317,0.1322,0.1328,0.1335,0.1347,0,0]},{"header":{"parameterUnit":"m.s-1","parameterCategory":1,"la1":30.2992,"la2":30.254,"lo1":-89.0895,"lo2":-89.0443,"dy":0.0025,"dx":0.0025,"nx":19,"ny":19,"refTime":"2026-04-21T09:00:00:Z","depth":0,"parameterNumber":3,"parameterNumberName":"V-component_of_WINDS"},"data":[0,0,0,-1.2396,-1.2396,-1.239,-1.239,-1.2382,-1.2382,0,0,0,0,0,0,0,0,0,0,0,-1.2399,-1.2398,-1.2396,-1.2396,-1.239,-1.239,-1.2382,-1.2382,0,0,0,0,0,0,0,0,0,0,0,-1.2399,-1.2398,-1.2398,-1.2396,-1.239,-1.239,-1.2383,-1.2387,0,0,0,0,0,0,0,0,0,0,-1.2392,-1.2396,-1.2398,-1.2398,-1.2396,-1.239,-1.239,-1.2387,-1.2386,-1.2385,0,-1.2385,0,-1.2384,-1.2382,-1.2382,0,0,0,-1.2395,-1.2396,-1.2394,-1.2398,-1.2396,-1.239,-1.2392,-1.2387,-1.2386,-1.2385,-1.2385,-1.2385,-1.2384,-1.2382,-1.2382,-1.2379,-1.2379,0,0,-1.2395,-1.2398,-1.2394,-1.2394,-1.2395,-1.2393,-1.2392,-1.2386,-1.2387,-1.2385,-1.2385,-1.2384,-1.2382,-1.2382,-1.2379,-1.2379,0,0,0,-1.2397,-1.2398,-1.2396,-1.2394,-1.2393,-1.2392,-1.2392,-1.2387,-1.2386,-1.2385,-1.2383,-1.2382,-1.2382,-1.2379,-1.2379,-1.2383,0,0,0,-1.2397,-1.2399,-1.2396,-1.2397,-1.2393,-1.239,-1.2393,-1.2386,-1.2386,-1.2384,-1.2382,-1.2382,-1.2379,-1.2379,-1.2383,-1.2384,0,0,0,-1.2399,-1.2399,-1.2399,-1.2398,-1.2395,-1.239,-1.2389,-1.2386,-1.2385,-1.2382,-1.2382,-1.2379,-1.2379,-1.2383,-1.2384,-1.2384,0,0,0,-1.2401,-1.2402,-1.2399,-1.2399,-1.2395,-1.2392,-1.2389,-1.2387,-1.2384,-1.2382,-1.2379,-1.2379,-1.2383,-1.2384,-1.2384,-1.2384,-1.2385,0,0,-1.2403,-1.2402,-1.2402,-1.2399,-1.2398,-1.2393,-1.2392,-1.2387,-1.2385,-1.2381,-1.2381,-1.2383,-1.2384,-1.2384,-1.2387,-1.2387,0,0,0,-1.2404,-1.2404,-1.2403,-1.2401,-1.2398,-1.2395,-1.239,-1.2389,-1.2385,-1.2384,-1.2383,-1.2383,-1.2383,-1.2383,-1.2384,-1.2383,-1.238,-1.238,-1.238,-1.2411,-1.2408,-1.2407,-1.2403,-1.2401,-1.2396,-1.2394,-1.239,-1.2388,-1.2387,-1.2386,-1.2389,-1.2389,-1.2389,-1.2389,-1.2386,-1.2386,-1.2386,-1.2386,-1.2414,-1.2413,-1.2409,-1.2407,-1.2403,-1.2401,-1.2396,-1.2394,-1.2391,-1.2389,-1.2389,-1.2387,-1.239,-1.2389,-1.2387,-1.2387,-1.2387,-1.2386,-1.2386,-1.2418,-1.2417,-1.2415,-1.2411,-1.2409,-1.2404,-1.2402,-1.2398,-1.2395,-1.2394,-1.2392,-1.2392,-1.2391,-1.2394,-1.2394,-1.2394,-1.2394,-1.2394,-1.2394,-1.2423,-1.2421,-1.2419,-1.2415,-1.2413,-1.241,-1.2404,-1.2402,-1.2398,-1.2396,-1.2396,-1.2393,-1.2391,-1.239,-1.2394,-1.2394,-1.2394,-1.2394,-1.2394,-1.2427,-1.2426,-1.2424,-1.2421,-1.2416,-1.2413,-1.2409,-1.2404,-1.2401,-1.24,-1.2397,-1.2396,-1.2394,-1.2394,-1.2394,-1.2398,-1.2398,-1.2398,-1.2398,-1.2431,-1.243,-1.2426,-1.2423,-1.2419,-1.2415,-1.2411,-1.2406,-1.2401,-1.2399,-1.2398,-1.2397,-1.2397,-1.2395,-1.2395,-1.2395,-1.2399,-1.2399,-1.2399,-1.2433,-1.2431,-1.2429,-1.2425,-1.242,-1.2416,-1.2412,-1.2408,-1.2402,-1.2399,-1.2397,-1.2397,-1.2396,-1.2396,-1.2393,-1.2392,-1.2391,0,0]}]]